Flag for Czech Republic Weather past 2 weeks in Plzen, Czech Republic

Now
37 °F

Overcast.


Feels Like: 37 °F
Forecast: 31 / 45 °F
Wind: 1 mph from Northwest

Location: Kocelovice

Current Time: Feb 28, 2015 at 8:25:53 PM

Latest Report: Feb 28, 2015 at 7:00 PM


Visibility: 10 mi

Pressure: 30.13 "Hg

Humidity: 75%

Dew point: 29 °F

Location of PlzenLocation

Historic Weather in Plzen — Graph

°F

Plzen temperature yesterday

Maximum temperature yesterday: 40 °F (at 4:00 PM)
Minimum temperature yesterday: 24 °F (at 7:00 AM)
Average temperature yesterday: 32 °F

Past Weeks' High & Low Weather Summary

 TemperatureHumidityPressure
High51 °F (Feb 20, 4:00 PM)100% (Feb 23, 6:00 AM)30.79 "Hg (Feb 23, 6:00 AM)
Low24 °F (Feb 27, 7:00 AM)39% (Feb 20, 4:00 PM)29.50 "Hg (Feb 23, 2:00 PM)
Average33 °F82%30.09 "Hg
* Reported Feb 13 7:00 PM — Feb 28 7:00 PM, Plzen, Weather by CustomWeather, © 2015

Note: Actual official high and low records may vary slightly from our data, if they occured in-between our weather recording intervals... More about our weather records

Advertising

Plzen weather history for previous 24 hours

 ConditionsComfort  
Time TempWeatherWind HumidityBarometerVisibility
7:00 PM
Sat, Feb 28
37 °FOvercast.1 mph75%30.13 "Hg10 mi
6:00 PM37 °FOvercast.1 mph72%30.13 "Hg12 mi
5:00 PM37 °FOvercast.N/A72%30.12 "Hg12 mi
4:00 PM38 °FOvercast.N/A72%30.12 "Hg9 mi
3:00 PM39 °FOvercast.N/A71%30.12 "Hg7 mi
2:00 PM39 °FFog.N/A75%30.14 "Hg6 mi
1:00 PM36 °FFog.N/A79%30.17 "Hg5 mi
12:00 PM35 °FOvercast.N/A82%30.19 "Hg5 mi
11:00 AM35 °FFog.1 mph83%30.19 "Hg4 mi
10:00 AM34 °FFog.2 mph83%30.18 "Hg5 mi
9:00 AM32 °FFog.N/A86%30.18 "Hg5 mi
8:00 AM31 °FFog.2 mph87%30.17 "Hg4 mi
7:00 AM31 °FFog.2 mph85%30.15 "Hg5 mi
6:00 AM31 °FFog.3 mph85%30.13 "Hg6 mi
5:00 AM32 °FChilly.3 mph83%30.11 "Hg7 mi
3:00 AM32 °FFog.2 mph87%30.09 "Hg4 mi
2:00 AM31 °FFog.2 mph92%30.09 "Hg3 mi
1:00 AM31 °FFog.2 mph93%30.08 "Hg3 mi
12:00 AM31 °FFog.1 mph88%30.07 "Hg4 mi
11:00 PM
Fri, Feb 27
33 °FFog.N/A86%30.05 "Hg4 mi
9:00 PM35 °FFog.2 mph83%30.01 "Hg6 mi
8:00 PM34 °FOvercast.No wind83%30.01 "Hg6 mi
Weather by CustomWeather, © 2015

See weather overviewHow to use our weather pages